SCP
-0 -0 0 0 -0 -0 -0 -0 0 -0 0 0 0 -0 -0 -0 -0 -0 -0 -0 -0 -0 -0 -0 0 0 0 0 0 0 0 0 0 0 0 0 0 -0 -0 0 0 0 0 -0 -0 -0 -0 -0 -0
-0 -0 -0 0 -0 0 0 0 0 0 -0 0 0 -0 -0 -0 -0 -0 -0 -0 -0 -0 -0 -0 0 0 0 0 0 0 0 0 0 0 0 0 -0 -0 -0 -0 0 0 0 0 -0 -0 -0 -0 0
-0 0 -0 0 0 0 -0 -0 0 -0 -0 0 0 0 0 0 -0 -0 -0 -0 -0 -0 -0 -0 0 0 0 0 0 0 0 0 0 0 0 -0 -0 -0 -0 -0 0 0 0 0 -0 0 0 -0 -0
0 0 0 -0 -0 -0 -0 -0 0 -0 0 0 0 0 0 0 0 0 -0 -0 -0 -0 -0 -0 0 0 0 0 0 0 0 0 0 0 -0 -0 -0 -0 -0 -0 -0 -0 0 0 -0 -0 -0 -0 -0
-0 0 -0 -0 0 0 0 0 0 -0 0 0 0 -0 0 0 0 -0 -0 -0 -0 -0 -0 -0 0 0 0 0 0 0 0 0 0 -0 -0 -0 -0 -0 -0 -0 -0 -0 -0 -0 0 -0 -0 -0 -0
0 0 -0 -0 0 0 0 0 0 0 0 0 0 0 0 0 0 -0 -0 -0 -0 -0 -0 -0 0 0 0 -0 -0 0 0 0 0 0 -0 -0 0 0 0 -0 -0 -0 -0 -0 -0 -0 -0 -0 -0
0 0 -0 -0 0 -0 0 0 -0 0 0 0 0 0 0 0 0 -0 -0 -0 -0 -0 -0 -0 -0 0 -0 -0 -0 -0 -0 -0 -0 0 0 0 0 -0 -0 -0 -0 -0 -0 -0 -0 -0 -0 -0 -0
-0 0 -0 -0 0 0 0 0 0 0 -0 0 0 0 0 -0 0 -0 -0 -0 -0 -0 -0 -0 0 -0 0 0 -0 -0 -0 -0 -0 -0 -0 -0 -0 -0 -0 -0 0 0 -0 -0 -0 -0 0 0 -0
0 0 0 -0 0 0 0 0 0 0 0 0 0 0 -0 -0 -0 -0 -0 -0 -0 -0 -0 -0 -0 0 0 -0 -0 0 -0 -0 -0 0 -0 -0 -0 -0 -0 0 0 -0 -0 -0 -0 0 0 -0 -0
-0 0 -0 -0 0 0 0 0 0 0 0 0 0 -0 -0 -0 -0 -0 -0 -0 -0 -0 -0 -0 0 -0 -0 0 -0 0 -0 -0 -0 -0 -0 0 0 0 0 0 -0 -0 -0 -0 -0 -0 -0 -0 0
0 0 0 0 0 0 0 0 0 0 0 0 -0 -0 -0 -0 -0 -0 0 0 0 -0 0 -0 -0 -0 -0 0 0 0 0 0 0 0 -0 0 0 0 0 0 0 0 -0 0 -0 -0 0 -0 0
0 0 0 0 0 0 0 0 0 0 0 0 -0 -0 -0 -0 -0 -0 0 0 0 0 0 0 0 0 -0 0 0 0 0 0 0 0 0 0 0 0 0 0 0 0 0 0 0 0 0 0 0
0 0 0 0 0 0 0 0 0 1 1 1 0 -0 -0 -0 -0 0 0 0 0 0 0 0 0 0 0 0 0 0 0 0 0 0 0 0 0 0 0 0 0 0 0 0 0 0 0 0 0
0 0 0 0 0 0 0 0 1 1 1 1 0 0 0 0 0 0 0 0 0 0 0 0 0 0 0 0 0 0 0 0 0 0 0 0 0 0 0 0 0 0 0 0 0 0 0 0 0
0 0 0 0 0 0 0 0 1 1 1 1 0 0 0 0 0 0 0 0 0 0 0 0 0 0 0 0 0 0 0 0 0 0 0 0 0 0 0 0 0 0 0 0 0 0 0 0 0
0 0 0 0 0 0 0 0 0 1 0 1 1 1 1 1 0 0 0 0 0 0 0 0 0 0 0 0 0 0 0 0 0 0 0 0 0 0 0 0 0 0 0 0 0 0 0 0 0
0 0 0 -0 0 0 0 0 0 0 0 1 1 0 0 0 0 0 0 0 0 0 0 0 0 0 0 0 0 0 0 0 0 0 0 0 0 0 0 0 0 0 0 0 0 0 0 0 0
0 0 0 0 0 0 0 0 1 1 1 1 1 0 0 0 0 0 0 0 0 0 0 0 0 0 0 0 0 0 0 0 0 0 0 0 0 0 0 0 0 0 0 0 0 0 0 0 0
0 0 0 0 0 0 0 0 0 0 0 1 0 1 0 0 0 0 0 0 0 0 0 0 0 0 0 0 0 0 0 0 0 0 0 0 0 0 0 0 0 0 0 0 0 0 0 0 0
0 0 0 0 0 0 0 0 -0 1 1 1 1 1 1 0 0 0 0 0 0 0 0 0 0 0 0 0 0 0 0 0 0 0 0 0 0 0 0 0 0 0 0 0 0 0 0 0 0
0 0 0 0 0 0 0 0 0 0 0 1 1 1 1 0 0 0 0 0 0 0 0 0 0 0 0 0 0 0 0 0 0 0 0 0 0 0 0 0 0 0 0 0 0 0 0 0 0
0 0 0 0 0 0 0 0 0 0 0 1 1 1 1 0 0 0 0 0 0 0 0 0 0 0 0 0 0 0 0 0 0 0 0 0 0 0 0 0 0 0 0 0 0 0 0 0 0
0 0 0 0 0 0 0 0 0 0 0 0 0 0 1 0 0 0 0 0 0 0 0 0 0 0 0 0 0 0 0 0 0 0 0 0 0 0 0 0 0 0 0 0 0 0 0 0 0
0 0 -0 0 0 0 0 0 0 0 0 0 0 0 0 0 1 0 0 0 0 0 0 0 0 0 0 0 0 0 0 0 0 0 0 0 0 0 0 0 0 0 0 0 0 0 0 0 0
0 0 0 0 0 0 0 0 0 0 0 0 0 0 0 0 0 1 0 0 0 0 0 0 0 0 0 0 0 0 0 0 0 0 0 0 0 0 0 0 0 0 0 0 0 0 0 0 0
0 0 0 0 0 0 0 0 0 0 0 0 0 0 0 0 1 1 0 0 0 0 0 0 0 0 0 0 0 0 0 0 0 0 0 0 0 0 0 0 0 0 0 0 0 0 0 0 0
0 0 0 0 0 0 0 0 0 0 0 0 0 0 0 1 1 0 0 0 0 0 0 0 0 0 0 0 0 0 0 0 0 0 0 0 0 0 0 0 0 0 0 0 0 0 0 0 0
0 0 0 0 0 0 0 0 0 0 0 0 0 0 1 1 0 0 0 0 0 0 0 0 0 0 0 0 0 0 0 0 0 0 0 0 0 0 0 0 0 0 0 0 0 0 0 0 0
0 0 0 0 0 0 0 0 0 0 0 0 0 0 0 0 0 0 0 0 0 0 0 0 0 0 0 0 0 0 0 0 0 0 0 0 0 0 0 0 0 0 0 0 0 0 0 0 0
0 0 0 0 0 0 0 0 0 0 0 0 0 0 0 0 0 0 0 0 0 0 0 0 0 0 0 0 0 0 0 0 0 0 0 0 0 0 0 0 0 0 0 0 0 0 0 0 0
Wind_Speed_500mb
25 27 16 22 17 14 17 15 21 21 19 20 21 19 29 34 26 16 34 31 33 31 30 29 31 28 27 27 29 31 31 31 31 33 34 33 33 33 32 28 26 26 26 26 25 24 24 24 24
11 21 24 27 27 15 10 19 21 19 27 18 19 8 22 26 21 40 36 36 34 31 31 28 32 31 28 29 30 33 33 31 30 31 32 30 27 27 25 22 21 21 20 19 19 19 20 20 20
20 21 30 22 22 6 34 25 21 22 20 18 11 18 21 17 27 34 33 40 32 34 30 30 34 32 31 30 32 33 32 30 30 28 27 27 24 20 18 16 15 14 15 13 13 14 14 15 16
15 29 28 23 32 28 13 25 19 28 22 12 15 25 19 20 21 22 41 38 34 31 29 35 35 34 32 32 33 32 29 27 26 26 25 22 19 16 12 10 9 10 8 8 7 9 10 12 15
22 29 25 36 24 2 7 8 18 26 16 20 18 27 19 13 24 41 43 37 37 31 29 33 36 34 34 34 34 31 27 25 24 23 22 18 15 12 9 6 5 5 4 6 6 7 9 11 13
36 39 27 32 20 13 2 8 9 11 16 13 16 30 14 23 35 39 38 36 37 34 30 30 36 36 35 34 34 31 26 25 23 21 19 17 13 9 5 3 2 3 5 8 10 11 11 10 12
35 27 34 44 14 12 6 13 20 22 27 12 26 20 24 32 37 38 38 34 32 36 30 30 32 35 35 35 33 31 26 24 22 20 17 13 10 7 4 1 2 5 9 11 12 12 12 12 12
41 24 44 40 21 6 13 19 20 14 29 15 6 15 27 47 45 41 38 37 29 31 27 28 28 25 26 29 33 32 28 25 21 18 13 11 6 1 2 5 6 6 8 10 10 11 11 11 13
34 28 31 44 31 4 21 27 16 9 21 16 10 19 48 54 48 42 43 40 34 31 31 29 25 27 24 21 26 28 25 22 18 15 11 11 6 6 11 12 9 9 9 9 9 10 11 13 15
37 28 44 41 25 7 30 23 26 17 25 19 23 37 54 53 49 43 44 39 34 33 31 29 28 26 24 26 18 19 14 12 6 8 13 7 12 13 13 13 17 18 14 16 16 15 13 15 12
45 40 39 44 24 14 12 27 31 29 22 26 36 45 51 50 45 41 39 35 34 31 28 27 26 25 22 19 19 15 17 16 17 14 13 11 10 10 10 12 16 15 21 13 20 21 14 12 13
40 46 57 50 16 13 30 19 32 29 4 44 41 45 48 47 43 41 38 35 34 34 32 31 29 29 28 21 23 19 20 19 15 13 14 9 8 12 11 11 11 12 11 14 12 11 17 15 17
38 38 43 53 34 18 28 30 25 30 12 34 44 46 45 43 40 37 35 33 32 32 31 28 26 24 25 26 20 20 21 18 20 15 16 11 11 16 11 15 9 11 11 11 12 14 15 16 16
34 37 53 30 40 37 27 32 22 25 28 36 44 47 44 42 40 37 36 35 32 31 30 30 27 26 22 22 23 22 20 31 17 15 19 23 13 24 10 10 10 11 12 13 15 18 19 18 18
35 30 37 31 33 38 25 38 28 42 39 39 40 41 42 40 38 38 36 34 34 31 30 26 28 25 29 27 22 19 16 18 16 18 25 27 26 25 23 9 9 19 20 22 21 20 19 20 20
30 34 33 42 40 37 21 40 41 42 48 46 42 39 40 40 38 35 36 34 32 29 26 26 23 25 26 24 22 17 17 16 14 13 18 22 24 24 18 14 24 25 24 25 27 25 22 20 20
28 31 41 41 45 32 34 38 47 59 54 52 49 44 44 44 40 39 36 35 33 30 27 24 25 23 22 25 21 20 22 13 12 12 15 24 23 22 22 27 31 29 28 28 33 28 22 17 18
29 35 32 34 35 33 39 39 34 45 50 45 48 46 47 49 51 44 38 36 33 30 29 32 24 32 32 25 19 16 15 13 11 15 25 23 24 25 20 26 29 28 35 30 26 21 15 15 16
41 31 24 30 22 40 38 39 44 49 50 47 48 48 48 50 46 44 42 37 35 35 34 36 34 31 25 22 17 16 15 15 15 23 22 24 24 25 25 16 20 19 21 17 13 7 9 10 6
33 31 34 32 31 25 29 39 41 45 45 53 50 48 51 49 53 50 47 44 39 38 39 34 31 38 32 21 24 22 22 15 22 23 22 25 24 21 25 18 15 12 4 7 5 5 9 9 10
31 34 34 35 29 35 32 38 43 46 61 44 47 52 53 55 57 54 52 47 41 38 37 35 33 33 29 27 35 35 26 18 12 14 15 21 18 16 15 17 10 12 10 7 6 11 14 12 15
34 34 36 36 34 33 37 33 44 46 47 48 52 52 53 57 58 54 52 47 43 38 34 31 32 31 29 34 20 21 15 13 15 10 11 10 13 14 12 11 9 8 5 7 6 10 17 20 15
34 33 37 33 36 42 49 31 36 39 50 49 53 65 66 65 63 58 52 45 40 36 33 31 31 30 28 25 25 23 19 22 14 12 12 12 10 10 8 8 8 10 9 12 12 13 15 16 17
24 28 38 33 30 35 42 41 39 38 39 42 42 60 65 66 64 57 49 41 38 34 32 30 30 29 25 23 24 21 25 19 18 15 12 12 9 9 10 9 12 13 13 12 12 16 15 17 15
38 32 27 33 32 35 41 44 42 45 38 42 25 51 61 73 70 60 51 43 39 35 31 29 30 28 25 24 22 22 22 20 19 17 14 15 11 8 8 12 13 9 13 13 14 16 16 16 16
43 30 24 47 37 39 39 43 45 42 30 13 18 9 7 36 57 55 47 42 37 36 31 28 29 28 27 25 24 22 21 15 14 15 15 13 12 8 10 12 13 14 13 12 15 12 13 15 14
36 33 40 36 39 40 44 53 50 19 21 10 4 14 22 38 50 50 45 40 38 36 32 29 28 28 26 25 23 22 20 18 21 16 16 17 15 10 11 11 12 13 13 13 14 10 12 13 12
45 38 41 30 42 49 40 45 6 13 2 13 8 8 20 34 43 48 46 41 38 34 30 28 27 27 25 23 21 19 18 16 14 15 19 18 18 14 10 9 9 9 12 12 14 9 11 12 10
37 33 31 33 27 31 29 22 14 7 17 7 8 18 27 32 40 43 46 42 37 34 31 29 28 27 25 23 20 19 15 15 13 15 15 16 17 15 12 8 5 8 9 10 10 11 10 11 10
35 40 23 13 13 18 24 30 23 21 15 5 15 22 39 37 40 42 42 44 40 36 32 30 28 28 30 31 26 18 15 12 11 13 17 18 17 14 14 12 11 7 8 10 8 11 8 8 9
Wind_Direction_500mb
323 342 310 263 245 199 171 252 73 109 131 70 107 32 68 43 16 100 138 133 140 139 141 140 134 131 131 131 134 132 126 120 117 115 114 113 111 108 104 99 93 85 81 82 79 73 65 60 57
295 291 281 269 248 325 293 105 128 104 80 120 106 156 69 62 58 131 129 139 142 138 137 140 136 135 137 137 137 132 128 122 120 121 120 117 112 109 105 98 88 81 80 77 75 70 63 57 52
297 277 277 241 260 169 239 94 123 112 142 158 104 51 47 85 120 138 142 141 145 138 137 157 143 143 143 144 142 137 133 130 127 129 128 126 123 117 109 100 90 75 74 68 67 62 58 53 47
280 260 248 253 280 199 68 140 139 145 163 149 135 86 94 89 135 150 143 143 139 140 148 153 148 148 150 151 150 145 140 138 137 137 139 139 137 131 116 97 76 72 74 73 54 47 46 42 36
256 265 265 255 245 116 345 97 172 158 122 140 169 124 105 98 131 138 144 144 143 145 151 156 154 155 157 158 158 155 150 146 147 148 147 149 145 139 122 108 88 79 33 24 12 13 19 27 36
250 248 266 257 258 88 202 168 198 109 131 117 148 108 112 136 141 145 145 149 147 148 144 160 161 162 165 165 165 165 163 158 157 158 157 159 157 147 140 129 88 16 10 356 348 351 359 9 21
245 257 247 269 214 181 178 178 197 186 160 171 144 136 142 158 156 151 149 152 155 142 161 155 165 170 170 172 172 176 174 171 172 172 172 168 166 163 177 187 332 350 352 350 349 350 357 4 15
244 256 269 263 277 293 104 176 182 190 80 134 167 165 163 163 159 153 153 156 162 158 157 148 163 170 168 182 181 181 183 183 185 186 185 178 151 183 331 313 305 339 352 0 9 13 16 19 18
236 256 251 248 234 72 139 166 151 106 141 162 165 158 154 158 158 158 157 158 159 163 156 170 159 172 170 180 198 191 189 189 193 198 199 179 59 306 320 279 296 324 346 355 358 7 17 17 14
232 237 244 252 274 225 170 177 158 184 156 154 128 118 148 157 161 163 166 169 170 164 169 172 169 175 169 178 206 182 203 197 199 222 241 209 241 213 205 285 325 320 326 343 346 342 358 7 318
222 243 247 256 297 315 275 193 151 206 177 166 147 151 155 161 167 170 172 173 170 169 173 176 174 178 181 179 189 190 204 196 222 219 222 239 228 268 295 286 308 351 329 321 329 320 330 292 299
229 240 254 269 247 220 264 200 158 211 33 153 159 161 161 166 171 172 171 169 168 169 176 178 184 181 177 193 189 197 194 206 203 226 234 252 255 262 259 260 266 297 285 299 301 295 293 312 300
237 238 246 253 270 233 253 264 192 166 147 144 159 165 167 169 172 170 164 168 170 171 176 175 182 180 188 180 194 194 199 198 212 216 234 202 232 241 251 253 275 276 287 293 297 297 292 304 304
244 245 254 242 234 243 234 233 169 150 153 151 162 171 171 172 169 167 168 168 169 172 172 180 173 181 184 179 188 194 184 205 193 196 219 222 216 235 248 276 279 285 298 294 299 292 301 294 295
254 262 238 236 236 243 223 241 196 168 172 164 170 171 172 172 173 173 173 171 169 170 174 177 178 178 182 194 184 177 178 182 186 218 228 230 227 242 232 247 264 268 283 289 294 296 298 299 292
232 236 250 214 219 224 211 233 195 170 180 173 170 174 178 175 179 178 176 175 175 178 175 173 180 189 179 183 178 176 176 176 182 204 229 232 238 244 233 248 256 270 280 288 285 294 301 297 285
211 242 222 256 182 218 207 241 238 177 187 180 174 180 183 182 184 184 182 183 181 180 183 178 174 176 180 192 181 182 196 170 188 201 229 230 236 239 246 259 271 283 279 281 284 285 289 307 301
227 213 250 225 179 204 220 229 151 180 189 190 180 183 189 192 190 187 186 188 188 185 188 188 180 193 201 184 183 177 180 178 187 214 236 238 247 250 245 266 267 269 273 274 278 277 294 316 309
289 297 285 260 233 196 221 238 178 186 194 188 202 189 195 199 197 197 193 193 195 194 198 213 201 216 209 212 202 195 191 196 223 245 246 247 251 256 251 268 270 263 259 266 265 239 336 338 352
267 265 268 278 280 265 229 229 245 178 202 196 198 201 198 198 198 197 194 192 198 204 201 199 200 215 206 199 190 199 199 194 224 240 248 253 257 256 251 248 246 199 257 223 202 176 115 13 14
253 260 266 265 260 235 260 259 251 229 196 210 208 207 207 204 197 197 197 198 196 197 196 195 199 220 196 199 202 203 217 234 231 243 244 253 255 255 248 233 215 184 169 178 164 115 143 57 22
257 255 248 263 269 258 210 253 238 233 243 194 206 206 207 209 204 202 200 198 197 200 197 194 193 197 192 201 199 195 195 207 192 168 207 233 242 238 225 207 203 195 154 151 137 121 97 99 62
261 268 268 258 246 261 254 255 263 231 230 219 203 211 207 206 205 203 200 198 199 197 193 187 184 189 198 187 190 199 185 197 177 172 165 191 186 172 165 159 153 143 106 113 109 112 108 97 75
286 276 262 260 267 254 250 256 255 250 242 254 240 198 212 207 201 199 196 195 194 192 185 177 171 173 175 175 179 169 185 167 177 164 144 135 126 119 127 126 134 126 99 105 103 96 95 88 102
254 244 256 245 233 245 244 247 254 260 256 242 315 204 204 205 191 185 183 188 187 186 182 174 168 163 161 156 158 158 159 161 166 152 161 154 148 132 130 126 106 104 120 113 96 90 87 91 89
311 296 271 280 276 275 266 247 246 246 221 131 171 195 246 180 171 173 181 183 184 182 176 168 158 152 148 146 145 147 145 148 161 155 167 158 166 140 116 120 127 124 111 104 90 78 72 78 56
287 284 291 303 291 288 281 282 278 156 91 27 319 189 219 160 158 167 172 178 178 176 173 167 158 151 146 143 140 137 144 144 166 149 135 146 140 117 109 114 114 110 107 105 73 87 82 77 71
279 275 284 274 275 268 273 275 344 77 1 39 63 82 125 149 158 162 166 168 168 169 166 161 154 148 142 136 129 127 126 126 128 133 139 141 142 133 106 105 106 113 106 103 106 64 79 86 82
314 309 313 281 308 290 276 281 33 334 26 41 112 135 153 164 159 160 157 157 157 160 163 155 150 144 137 132 131 125 128 124 132 134 133 139 138 131 117 100 92 98 101 98 112 100 89 80 59
278 296 7 319 309 277 273 272 85 351 29 258 119 139 154 158 156 155 154 151 152 157 154 149 146 139 136 141 134 129 112 105 106 144 154 152 148 150 144 146 148 140 127 121 121 120 100 84 64
Wind_Speed_850mb
25 27 16 22 17 14 17 15 21 21 19 20 21 19 29 34 26 16 34 31 33 31 30 29 31 28 27 27 29 31 31 31 31 33 34 33 33 33 32 28 26 26 26 26 25 24 24 24 24
11 21 24 27 27 15 10 19 21 19 27 18 19 8 22 26 21 40 36 36 34 31 31 28 32 31 28 29 30 33 33 31 30 31 32 30 27 27 25 22 21 21 20 19 19 19 20 20 20
20 21 30 22 22 6 34 25 21 22 20 18 11 18 21 17 27 34 33 40 32 34 30 30 34 32 31 30 32 33 32 30 30 28 27 27 24 20 18 16 15 14 15 13 13 14 14 15 16
15 29 28 23 32 28 13 25 19 28 22 12 15 25 19 20 21 22 41 38 34 31 29 35 35 34 32 32 33 32 29 27 26 26 25 22 19 16 12 10 9 10 8 8 7 9 10 12 15
22 29 25 36 24 2 7 8 18 26 16 20 18 27 19 13 24 41 43 37 37 31 29 33 36 34 34 34 34 31 27 25 24 23 22 18 15 12 9 6 5 5 4 6 6 7 9 11 13
36 39 27 32 20 13 2 8 9 11 16 13 16 30 14 23 35 39 38 36 37 34 30 30 36 36 35 34 34 31 26 25 23 21 19 17 13 9 5 3 2 3 5 8 10 11 11 10 12
35 27 34 44 14 12 6 13 20 22 27 12 26 20 24 32 37 38 38 34 32 36 30 30 32 35 35 35 33 31 26 24 22 20 17 13 10 7 4 1 2 5 9 11 12 12 12 12 12
41 24 44 40 21 6 13 19 20 14 29 15 6 15 27 47 45 41 38 37 29 31 27 28 28 25 26 29 33 32 28 25 21 18 13 11 6 1 2 5 6 6 8 10 10 11 11 11 13
34 28 31 44 31 4 21 27 16 9 21 16 10 19 48 54 48 42 43 40 34 31 31 29 25 27 24 21 26 28 25 22 18 15 11 11 6 6 11 12 9 9 9 9 9 10 11 13 15
37 28 44 41 25 7 30 23 26 17 25 19 23 37 54 53 49 43 44 39 34 33 31 29 28 26 24 26 18 19 14 12 6 8 13 7 12 13 13 13 17 18 14 16 16 15 13 15 12
45 40 39 44 24 14 12 27 31 29 22 26 36 45 51 50 45 41 39 35 34 31 28 27 26 25 22 19 19 15 17 16 17 14 13 11 10 10 10 12 16 15 21 13 20 21 14 12 13
40 46 57 50 16 13 30 19 32 29 4 44 41 45 48 47 43 41 38 35 34 34 32 31 29 29 28 21 23 19 20 19 15 13 14 9 8 12 11 11 11 12 11 14 12 11 17 15 17
38 38 43 53 34 18 28 30 25 30 12 34 44 46 45 43 40 37 35 33 32 32 31 28 26 24 25 26 20 20 21 18 20 15 16 11 11 16 11 15 9 11 11 11 12 14 15 16 16
34 37 53 30 40 37 27 32 22 25 28 36 44 47 44 42 40 37 36 35 32 31 30 30 27 26 22 22 23 22 20 31 17 15 19 23 13 24 10 10 10 11 12 13 15 18 19 18 18
35 30 37 31 33 38 25 38 28 42 39 39 40 41 42 40 38 38 36 34 34 31 30 26 28 25 29 27 22 19 16 18 16 18 25 27 26 25 23 9 9 19 20 22 21 20 19 20 20
30 34 33 42 40 37 21 40 41 42 48 46 42 39 40 40 38 35 36 34 32 29 26 26 23 25 26 24 22 17 17 16 14 13 18 22 24 24 18 14 24 25 24 25 27 25 22 20 20
28 31 41 41 45 32 34 38 47 59 54 52 49 44 44 44 40 39 36 35 33 30 27 24 25 23 22 25 21 20 22 13 12 12 15 24 23 22 22 27 31 29 28 28 33 28 22 17 18
29 35 32 34 35 33 39 39 34 45 50 45 48 46 47 49 51 44 38 36 33 30 29 32 24 32 32 25 19 16 15 13 11 15 25 23 24 25 20 26 29 28 35 30 26 21 15 15 16
41 31 24 30 22 40 38 39 44 49 50 47 48 48 48 50 46 44 42 37 35 35 34 36 34 31 25 22 17 16 15 15 15 23 22 24 24 25 25 16 20 19 21 17 13 7 9 10 6
33 31 34 32 31 25 29 39 41 45 45 53 50 48 51 49 53 50 47 44 39 38 39 34 31 38 32 21 24 22 22 15 22 23 22 25 24 21 25 18 15 12 4 7 5 5 9 9 10
31 34 34 35 29 35 32 38 43 46 61 44 47 52 53 55 57 54 52 47 41 38 37 35 33 33 29 27 35 35 26 18 12 14 15 21 18 16 15 17 10 12 10 7 6 11 14 12 15
34 34 36 36 34 33 37 33 44 46 47 48 52 52 53 57 58 54 52 47 43 38 34 31 32 31 29 34 20 21 15 13 15 10 11 10 13 14 12 11 9 8 5 7 6 10 17 20 15
34 33 37 33 36 42 49 31 36 39 50 49 53 65 66 65 63 58 52 45 40 36 33 31 31 30 28 25 25 23 19 22 14 12 12 12 10 10 8 8 8 10 9 12 12 13 15 16 17
24 28 38 33 30 35 42 41 39 38 39 42 42 60 65 66 64 57 49 41 38 34 32 30 30 29 25 23 24 21 25 19 18 15 12 12 9 9 10 9 12 13 13 12 12 16 15 17 15
38 32 27 33 32 35 41 44 42 45 38 42 25 51 61 73 70 60 51 43 39 35 31 29 30 28 25 24 22 22 22 20 19 17 14 15 11 8 8 12 13 9 13 13 14 16 16 16 16
43 30 24 47 37 39 39 43 45 42 30 13 18 9 7 36 57 55 47 42 37 36 31 28 29 28 27 25 24 22 21 15 14 15 15 13 12 8 10 12 13 14 13 12 15 12 13 15 14
36 33 40 36 39 40 44 53 50 19 21 10 4 14 22 38 50 50 45 40 38 36 32 29 28 28 26 25 23 22 20 18 21 16 16 17 15 10 11 11 12 13 13 13 14 10 12 13 12
45 38 41 30 42 49 40 45 6 13 2 13 8 8 20 34 43 48 46 41 38 34 30 28 27 27 25 23 21 19 18 16 14 15 19 18 18 14 10 9 9 9 12 12 14 9 11 12 10
37 33 31 33 27 31 29 22 14 7 17 7 8 18 27 32 40 43 46 42 37 34 31 29 28 27 25 23 20 19 15 15 13 15 15 16 17 15 12 8 5 8 9 10 10 11 10 11 10
35 40 23 13 13 18 24 30 23 21 15 5 15 22 39 37 40 42 42 44 40 36 32 30 28 28 30 31 26 18 15 12 11 13 17 18 17 14 14 12 11 7 8 10 8 11 8 8 9
Wind_Direction_850mb
323 342 310 263 245 199 171 252 73 109 131 70 107 32 68 43 16 100 138 133 140 139 141 140 134 131 131 131 134 132 126 120 117 115 114 113 111 108 104 99 93 85 81 82 79 73 65 60 57
295 291 281 269 248 325 293 105 128 104 80 120 106 156 69 62 58 131 129 139 142 138 137 140 136 135 137 137 137 132 128 122 120 121 120 117 112 109 105 98 88 81 80 77 75 70 63 57 52
297 277 277 241 260 169 239 94 123 112 142 158 104 51 47 85 120 138 142 141 145 138 137 157 143 143 143 144 142 137 133 130 127 129 128 126 123 117 109 100 90 75 74 68 67 62 58 53 47
280 260 248 253 280 199 68 140 139 145 163 149 135 86 94 89 135 150 143 143 139 140 148 153 148 148 150 151 150 145 140 138 137 137 139 139 137 131 116 97 76 72 74 73 54 47 46 42 36
256 265 265 255 245 116 345 97 172 158 122 140 169 124 105 98 131 138 144 144 143 145 151 156 154 155 157 158 158 155 150 146 147 148 147 149 145 139 122 108 88 79 33 24 12 13 19 27 36
250 248 266 257 258 88 202 168 198 109 131 117 148 108 112 136 141 145 145 149 147 148 144 160 161 162 165 165 165 165 163 158 157 158 157 159 157 147 140 129 88 16 10 356 348 351 359 9 21
245 257 247 269 214 181 178 178 197 186 160 171 144 136 142 158 156 151 149 152 155 142 161 155 165 170 170 172 172 176 174 171 172 172 172 168 166 163 177 187 332 350 352 350 349 350 357 4 15
244 256 269 263 277 293 104 176 182 190 80 134 167 165 163 163 159 153 153 156 162 158 157 148 163 170 168 182 181 181 183 183 185 186 185 178 151 183 331 313 305 339 352 0 9 13 16 19 18
236 256 251 248 234 72 139 166 151 106 141 162 165 158 154 158 158 158 157 158 159 163 156 170 159 172 170 180 198 191 189 189 193 198 199 179 59 306 320 279 296 324 346 355 358 7 17 17 14
232 237 244 252 274 225 170 177 158 184 156 154 128 118 148 157 161 163 166 169 170 164 169 172 169 175 169 178 206 182 203 197 199 222 241 209 241 213 205 285 325 320 326 343 346 342 358 7 318
222 243 247 256 297 315 275 193 151 206 177 166 147 151 155 161 167 170 172 173 170 169 173 176 174 178 181 179 189 190 204 196 222 219 222 239 228 268 295 286 308 351 329 321 329 320 330 292 299
229 240 254 269 247 220 264 200 158 211 33 153 159 161 161 166 171 172 171 169 168 169 176 178 184 181 177 193 189 197 194 206 203 226 234 252 255 262 259 260 266 297 285 299 301 295 293 312 300
237 238 246 253 270 233 253 264 192 166 147 144 159 165 167 169 172 170 164 168 170 171 176 175 182 180 188 180 194 194 199 198 212 216 234 202 232 241 251 253 275 276 287 293 297 297 292 304 304
244 245 254 242 234 243 234 233 169 150 153 151 162 171 171 172 169 167 168 168 169 172 172 180 173 181 184 179 188 194 184 205 193 196 219 222 216 235 248 276 279 285 298 294 299 292 301 294 295
254 262 238 236 236 243 223 241 196 168 172 164 170 171 172 172 173 173 173 171 169 170 174 177 178 178 182 194 184 177 178 182 186 218 228 230 227 242 232 247 264 268 283 289 294 296 298 299 292
232 236 250 214 219 224 211 233 195 170 180 173 170 174 178 175 179 178 176 175 175 178 175 173 180 189 179 183 178 176 176 176 182 204 229 232 238 244 233 248 256 270 280 288 285 294 301 297 285
211 242 222 256 182 218 207 241 238 177 187 180 174 180 183 182 184 184 182 183 181 180 183 178 174 176 180 192 181 182 196 170 188 201 229 230 236 239 246 259 271 283 279 281 284 285 289 307 301
227 213 250 225 179 204 220 229 151 180 189 190 180 183 189 192 190 187 186 188 188 185 188 188 180 193 201 184 183 177 180 178 187 214 236 238 247 250 245 266 267 269 273 274 278 277 294 316 309
289 297 285 260 233 196 221 238 178 186 194 188 202 189 195 199 197 197 193 193 195 194 198 213 201 216 209 212 202 195 191 196 223 245 246 247 251 256 251 268 270 263 259 266 265 239 336 338 352
267 265 268 278 280 265 229 229 245 178 202 196 198 201 198 198 198 197 194 192 198 204 201 199 200 215 206 199 190 199 199 194 224 240 248 253 257 256 251 248 246 199 257 223 202 176 115 13 14
253 260 266 265 260 235 260 259 251 229 196 210 208 207 207 204 197 197 197 198 196 197 196 195 199 220 196 199 202 203 217 234 231 243 244 253 255 255 248 233 215 184 169 178 164 115 143 57 22
257 255 248 263 269 258 210 253 238 233 243 194 206 206 207 209 204 202 200 198 197 200 197 194 193 197 192 201 199 195 195 207 192 168 207 233 242 238 225 207 203 195 154 151 137 121 97 99 62
261 268 268 258 246 261 254 255 263 231 230 219 203 211 207 206 205 203 200 198 199 197 193 187 184 189 198 187 190 199 185 197 177 172 165 191 186 172 165 159 153 143 106 113 109 112 108 97 75
286 276 262 260 267 254 250 256 255 250 242 254 240 198 212 207 201 199 196 195 194 192 185 177 171 173 175 175 179 169 185 167 177 164 144 135 126 119 127 126 134 126 99 105 103 96 95 88 102
254 244 256 245 233 245 244 247 254 260 256 242 315 204 204 205 191 185 183 188 187 186 182 174 168 163 161 156 158 158 159 161 166 152 161 154 148 132 130 126 106 104 120 113 96 90 87 91 89
311 296 271 280 276 275 266 247 246 246 221 131 171 195 246 180 171 173 181 183 184 182 176 168 158 152 148 146 145 147 145 148 161 155 167 158 166 140 116 120 127 124 111 104 90 78 72 78 56
287 284 291 303 291 288 281 282 278 156 91 27 319 189 219 160 158 167 172 178 178 176 173 167 158 151 146 143 140 137 144 144 166 149 135 146 140 117 109 114 114 110 107 105 73 87 82 77 71
279 275 284 274 275 268 273 275 344 77 1 39 63 82 125 149 158 162 166 168 168 169 166 161 154 148 142 136 129 127 126 126 128 133 139 141 142 133 106 105 106 113 106 103 106 64 79 86 82
314 309 313 281 308 290 276 281 33 334 26 41 112 135 153 164 159 160 157 157 157 160 163 155 150 144 137 132 131 125 128 124 132 134 133 139 138 131 117 100 92 98 101 98 112 100 89 80 59
278 296 7 319 309 277 273 272 85 351 29 258 119 139 154 158 156 155 154 151 152 157 154 149 146 139 136 141 134 129 112 105 106 144 154 152 148 150 144 146 148 140 127 121 121 120 100 84 64